Tracking 29892 objects as of 21-Nov-2024
HD Live streaming from Space Station
objects crossing your sky now

STARLINK-2348

Track STARLINK-2348 now!
10-day predictions
STARLINK-2348 is classified as:


NORAD ID: 47888
Int'l Code: 2021-021AE
Perigee: 552.5 km
Apogee: 556.2 km
Inclination: 53.1 °
Period: 95.6 minutes
Semi major axis: 6925 km
RCS: Unknown
Launch date: March 14, 2021
Source: United States (US)
Launch site: AIR FORCE EASTERN TEST RANGE (AFETR)
Your satellite tracking list
Your tracking list is empty




NASA's NSSDC Master Catalog

Two Line Element Set (TLE):
1 47888U 21021AE  24325.21169260  .00003756  00000-0  27100-3 0  9998
2 47888  53.0545 241.6368 0002702  83.6429 276.4868 15.06392298204206
Source of the keplerian elements: AFSPC